Location: Sungai Liu
(2.3667°N, 113.8667°E)
Time: 13:35:34
(UTC+00:00)

Cosmos 864 Rocket - Pass Details

Date: 20 May 2022
Orbit: 952 x 992 km, 82.9° (Epoch: 06 July)

Event Time Altitude Azimuth Distance (km) Brightness Sun altitude
Rises 20:49:58 0° 354° (N) 3,620 7.7 -20.4°
Reaches altitude 10° 20:52:27 10° 353° (N) 2,673 7.0 -19.9°
Maximum altitude 20:58:34 80° 267° (W) 968 4.3 -18.5°
Drops below altitude 10° 21:04:40 10° 180° (S) 2,677 6.6 -17.0°
Sets 21:07:10 0° 179° (S) 3,625 7.3 -16.5°
